Flag for Oman Weather past 2 weeks in Salalah, Oman

Now
81 °F

Passing clouds.


Feels Like: 86 °F
Forecast: 77 / 86 °F
Wind: 6 mph from South

Location: Salalah Airport

Current Time: Sep 19, 2014 at 8:11:37 PM

Latest Report: Sep 19, 2014 at 6:50 PM


Visibility: 6 mi

Pressure: 29.77 "Hg

Humidity: 84%

Dew point: 75 °F

Location of SalalahLocation

Historic Weather in Salalah — Graph

°F

Salalah temperature yesterday

Maximum temperature yesterday: 86 °F (at 10:50 AM)
Minimum temperature yesterday: 79 °F (at 12:50 AM)
Average temperature yesterday: 82 °F

Past Weeks' High & Low Weather Summary

 TemperatureHumidityPressure
High88 °F (Sep 15, 12:50 PM)94% (Sep 7, 10:50 AM)29.86 "Hg (Sep 7, 10:50 AM)
Low77 °F (Sep 9, 4:50 AM)62% (Sep 14, 10:50 AM)29.62 "Hg (Sep 17, 1:50 AM)
Average81 °F82%29.73 "Hg
* Reported Sep 4 6:50 PM — Sep 19 6:50 PM, Salalah, Weather by CustomWeather, © 2014

Note: Actual official high and low records may vary slightly from our data, if they occured in-between our weather recording intervals... More about our weather records

Advertising

Salalah weather history for previous 24 hours

 ConditionsComfort  
Time TempWeatherWind HumidityBarometerVisibility
6:50 PM
Sep 19
81 °FPassing clouds.6 mph84%29.77 "Hg6 mi
5:50 PM81 °FScattered clouds.8 mph79%29.77 "Hg4 mi
4:50 PM82 °FScattered clouds.12 mph79%29.74 "Hg6 mi
3:50 PM82 °FPartly sunny.13 mph79%29.74 "HgN/A
2:50 PM84 °FScattered clouds.13 mph74%29.74 "HgN/A
1:50 PM86 °FPassing clouds.13 mph66%29.77 "HgN/A
12:50 PM84 °FWarm.10 mph74%29.80 "HgN/A
11:50 AM84 °FScattered clouds.10 mph70%29.83 "HgN/A
10:50 AM82 °FWarm.8 mph79%29.83 "HgN/A
9:50 AM82 °FScattered clouds.9 mph79%29.86 "Hg6 mi
8:50 AM81 °FPartly sunny.6 mph84%29.86 "Hg4 mi
7:50 AM81 °FWarm.5 mph84%29.83 "Hg5 mi
6:50 AM79 °FPartly sunny.3 mph89%29.83 "Hg4 mi
5:50 AM79 °FWarm.2 mph89%29.80 "Hg4 mi
4:50 AM79 °FWarm.5 mph89%29.77 "Hg5 mi
3:50 AM79 °FWarm.5 mph89%29.77 "Hg5 mi
2:50 AM79 °FPassing clouds.5 mph89%29.77 "Hg5 mi
1:50 AM79 °FPassing clouds.6 mph89%29.77 "Hg5 mi
12:50 AM79 °FPassing clouds.5 mph89%29.77 "Hg5 mi
11:50 PM
Sep 18
79 °FWarm.5 mph89%29.77 "Hg4 mi
10:50 PM79 °FPassing clouds.6 mph89%29.77 "Hg6 mi
9:50 PM81 °FWarm.2 mph84%29.77 "Hg4 mi
8:50 PM81 °FWarm.6 mph84%29.77 "Hg4 mi
Weather by CustomWeather, © 2014

See weather overviewHow to use our weather pages